Location: Amanico Ergina Village
(37.7824°N, 122.4366°W)
Time: 15:15:32
(UTC+00:00)

Daily predictions for brighter satellites

Satellite Brightness Start Highest point End
(mag) Time Altitude Azimuth Time Altitude Azimuth Time Altitude Azimuth
Cosmos 1634 Rocket 4.4 12:24:45 33° NNE 12:27:31 59° E 12:33:36 10° SSE
DELTA 2 R/B (1) 3.7 12:41:22 67° NE 12:41:22 67° NE 12:46:15 10° ENE
Okean 3 Rocket 4.5 12:38:04 10° SSE 12:42:24 49° E 12:46:48 10° NNE
Cosmos 2369 Rocket 3.8 12:49:40 21° N 12:49:40 21° N 12:51:32 10° NNE
Meteor 2-13 Rocket 4.2 12:40:38 10° S 12:46:43 80° W 12:52:50 10° N
MOS 1-B Rocket 4.5 12:41:28 10° SSE 12:47:35 57° ENE 12:52:15 15° N
CZ-2C R/B 3.6 12:54:42 10° SE 12:59:55 47° ENE 13:05:02 10° N
COSMO-SKYMED 1 3.7 12:59:43 10° SE 13:03:49 43° ENE 13:06:59 16° N
Cosmos 836 Rocket 4.3 13:07:17 60° NW 13:08:12 77° WSW 13:13:23 10° SSE
Cosmos 1408 Rocket 4.3 13:07:55 10° S 13:12:05 52° E 13:16:16 10° NNE
DNEPR-1 R/B 4.0 13:14:23 43° NNW 13:16:10 88° WSW 13:22:16 10° SSE
FALCON 9 R/B 4.4 13:04:13 29° W 13:20:15 74° SSW 13:28:08 10° ESE
Cosmos 1503 Rocket 4.1 13:21:03 41° WSW 13:22:22 50° WNW 13:27:34 10° N
Cosmos 1777 Rocket 4.0 13:22:38 10° SSW 13:27:50 80° ESE 13:33:05 10° NNE
SJ 16-02 1.5 13:24:39 10° S 13:28:59 73° ESE 13:33:22 10° NNE
Cosmos 1812 4.4 13:33:41 19° SW 13:33:41 19° SW 13:35:02 10° SSW
Cosmos 773 Rocket 4.3 13:28:03 12° NNW 13:32:58 66° ENE 13:38:04 10° SSE
SAR-Lupe-3 4.4 13:29:58 10° N 13:33:33 70° WNW 13:37:07 10° SSW
CZ-2C R/B 4.3 13:30:26 10° NNE 13:35:11 43° E 13:40:10 10° S
Cosmos 1515 Rocket 3.8 13:31:07 10° N 13:35:28 68° E 13:39:46 10° SSE
SJ-12 4.1 13:33:54 10° N 13:37:53 46° WNW 13:41:50 10° SSW
BREEZE-M DEB (TANK) 4.2 13:28:25 20° NW 13:40:11 62° SW 13:45:16 10° SSE
CENTAUR R/B 4.4 13:41:03 13° NNW 13:41:32 13° NNW 13:44:38 10° N
Cosmos 1340 Rocket 3.1 13:39:40 10° S 13:43:35 68° E 13:47:34 10° NNE
CZ-4B R/B 4.1 13:40:59 10° NNE 13:44:20 38° E 13:47:46 10° S
ATLAS 5 CENTAUR R/B 1.5 13:44:49 32° WSW 13:46:06 46° NW 13:50:05 10° NNE
Envisat 3.3 13:45:01 10° N 13:49:47 42° WNW 13:54:32 10° SW
Cosmos 1500 Rocket 3.7 13:45:42 10° S 13:50:08 81° E 13:54:38 10° N
Cosmos 2279 Rocket 4.2 13:45:52 10° NNW 13:51:43 46° W 13:57:34 10° SSW
SKYMED 2 3.7 13:47:37 10° S 13:51:49 51° W 13:55:36 13° NNW
Cosmos 1174 3.9 13:54:04 30° NW 13:54:04 30° NW 13:56:23 10° N
Nadezhda 4 Rocket 3.9 13:50:43 10° SSW 13:56:50 72° W 14:03:05 10° N
Cosmos 1151 Rocket 4.3 14:00:43 21° W 14:00:47 21° W 14:04:01 10° SW
H-2A R/B 4.3 14:03:08 17° WSW 14:03:08 17° WSW 14:04:30 10° WSW
Cosmos 1805 Rocket 4.1 13:58:16 10° S 14:02:35 62° E 14:06:54 10° NNE
Meteor 2-15 4.5 13:56:48 10° NNW 14:02:43 57° W 14:08:36 10° S
H-2A R/B 3.4 13:58:55 10° SE 14:02:55 40° ENE 14:07:00 10° N
COSMOS 2487 3.5 14:00:21 10° N 14:03:33 42° ENE 14:06:45 10° SE
Lacrosse 5 3.6 14:01:43 10° S 14:06:19 36° ESE 14:10:57 10° ENE
CZ-4C R/B 2.7 14:03:35 10° S 14:06:39 56° W 14:09:42 10° NNW
BREEZE-M DEB (TANK) 3.8 13:53:21 10° WSW 14:07:29 54° NW 14:11:17 10° NE
Meteor 1-31 Rocket 3.7 14:05:23 10° NNW 14:08:41 27° WNW 14:12:00 10° SW
Meteor 1-27 Rocket 3.7 14:04:16 10° NNW 14:09:56 72° W 14:15:42 10° S
Alouette 2 Rocket 3.6 14:07:17 10° N 14:10:49 66° ENE 14:14:39 10° SSE
ATLAS 3B R/B 2.7 14:04:46 10° SW 14:11:09 57° NW 14:17:50 10° NNE
SL-4 R/B 1.5 14:10:25 10° SW 14:13:53 79° NW 14:17:35 10° NE
Cosmos 1939 Rocket 3.1 14:10:07 10° NNE 14:14:00 68° E 14:17:49 10° S
Cosmos 1092 Rocket 4.0 14:09:42 10° S 14:15:57 88° W 14:22:18 10° N
NOSS 2 (A) 3.9 14:20:47 12° NNW 14:23:04 88° SW 14:25:25 10° SSE
Okean 1 4.3 14:20:14 10° N 14:24:04 49° E 14:27:53 10° SSE
SMAP 3.3 14:21:57 10° NNE 14:26:38 76° ESE 14:31:16 10° S
DELTA 2 R/B (1) 3.6 14:22:09 12° WNW 14:27:19 80° N 14:32:53 10° E
SL-8 R/B 4.2 14:24:32 12° WNW 14:28:44 46° SW 14:33:17 10° SSE
Meteor 1-25 Rocket 4.2 14:25:15 10° SSW 14:30:49 67° W 14:36:23 10° N
Cosmos 2297 Rocket 3.6 14:25:43 10° N 14:30:58 37° ENE 14:36:11 10° SE
Cosmos 1602 4.1 14:34:23 10° SSW 14:37:59 41° W 14:41:37 10° N
USA 215 3.4 14:31:43 10° SE 14:38:13 76° NE 14:44:45 10° NW
COSMO-SKYMED 1 4.3 14:37:43 10° SW 14:40:09 15° W 14:42:35 10° WNW
CZ-2C R/B 4.0 14:36:25 10° SW 14:40:22 20° W 14:44:17 10° NW
NOAA 12 4.2 14:35:39 10° N 14:40:46 54° WNW 14:45:50 10° SSW
SL-27 R/B 4.1 14:39:06 10° WNW 14:41:27 17° W 14:43:46 10° SW
Cosmos 1633 Rocket 3.8 14:39:17 10° S 14:43:32 59° E 14:47:48 10° NNE
OAO 2 Rocket 4.1 14:41:03 10° WSW 14:46:05 53° SSE 14:51:01 10° E
Meteor 2-14 Rocket 4.5 14:41:55 10° SSW 14:48:01 67° W 14:54:09 10° N
CZ-3 R/B 3.2 14:43:06 10° WSW 14:51:49 29° S 14:55:42 10° ESE
